NJUST-1 (42722 NORAD) Tracking and Keplerian Element Data

This shows tracking and keplerian element data for the satellite.

Feedback or suggestion? Click here.




ElementValue
Catalog42722
NameNJUST-1
Epoch Orbit10919
Epoch Day111.73481266
Epoch Year2019
RAAN214.7163
Inclination51.6358
Eccentricity0.0006388
Argument of Perigee333.4947
Mean Anonmoly184.2808
Mean Motion15.87764589
Decay Rate0.00077699
L11 42722U 98067MB 19111.73481266 .00077699 00000-0 28262-3 0 9998
L22 42722 51.6358 214.7163 0006388 333.4947 184.2808 15.87764589109190

Live tracking and technical data element details for NJUST-1 (NORAD 42722). NJUST-1 can be tracked NOW for your location showing map with azimuth and elevation plus other details from your city location.

Track the satellite on the map from your city or location and see movement details for azimuth, elevation, latitude, longitude, range, height, and movement on the map or in text.







IsCatalogInMostPopularTable: catalog: 42722, numindb: 222
Update: records affected: 1



GetName: 42722 NJUST-1

Hit Count: updated at: Tue, 23 Apr 2019 02:22:47 GMT